[[{"header":{"parameterUnit":"m.s-1","parameterCategory":1,"la1":30.2991,"la2":30.254,"lo1":-89.0895,"lo2":-89.0444,"dy":0.0017,"dx":0.0017,"nx":28,"ny":28,"refTime":"2025-03-20T21:00:00:Z","depth":0,"parameterNumber":2,"parameterNumberName":"U-component_of_WINDS"},"data":[0,0,0,0,0,0,0,0,0,0,0,0,0,0,0,0,0,0,0,0,0,0,0,0,0,0,0,0,0,0,0,0,0,0,0,0,0,0,0,0,0,0,0,0,0,0,0,0,0,0,0,0,0,0,0,0,0,0,-0.2219,-0.2219,0,-0.2143,-0.2142,-0.2141,-0.2088,-0.2088,-0.2087,-0.2087,-0.2007,-0.2005,-0.2004,0,0,0,0,0,0,0,0,0,0,0,0,0,-0.2321,-0.2319,-0.222,-0.2219,-0.2218,-0.2143,-0.2142,-0.2141,-0.2088,-0.2088,-0.2087,-0.2087,-0.2008,-0.2006,-0.2003,0,0,0,0,0,0,0,0,0,0,0,0,0,-0.2264,-0.2319,-0.222,-0.2182,-0.2178,-0.2143,-0.2142,-0.2141,-0.2088,-0.2088,-0.2087,-0.2087,-0.2008,-0.2006,-0.2003,-0.1999,0,0,-0.1995,-0.1994,0,0,0,0,0,0,0,0,-0.2267,-0.226,-0.2189,-0.2185,-0.218,-0.2124,-0.2148,-0.2093,-0.2088,-0.2122,-0.2087,-0.2086,-0.2047,-0.2041,-0.2028,-0.1995,-0.1991,-0.1995,-0.1993,-0.1992,-0.1991,0,0,0,0,0,0,0,-0.2271,-0.2263,-0.2189,-0.2188,-0.2183,-0.217,-0.2161,-0.2138,-0.2089,-0.2119,-0.2115,-0.2107,-0.2044,-0.203,-0.2025,-0.199,-0.1995,-0.1993,-0.1991,-0.199,-0.1952,-0.1952,0,0,0,0,0,0,-0.2281,-0.2267,-0.2192,-0.2187,-0.2223,-0.2168,-0.2159,-0.2143,-0.2089,-0.208,-0.2108,-0.2105,-0.2035,-0.2028,-0.2022,-0.2014,-0.1992,-0.199,-0.1988,-0.1951,-0.1952,-0.1952,0,0,0,0,0,0,-0.2283,-0.2275,-0.2195,-0.2226,-0.2215,-0.2167,-0.215,-0.2142,-0.2128,-0.208,-0.2071,-0.2103,-0.2034,-0.2026,-0.2005,-0.2011,-0.1988,-0.1986,-0.195,-0.1951,-0.1952,-0.1998,0,0,0,0,0,0,-0.2287,-0.2276,-0.2273,-0.2226,-0.2213,-0.2179,-0.215,-0.2141,-0.2124,-0.2119,-0.2073,-0.2064,-0.2033,-0.201,-0.2003,-0.2007,-0.1984,-0.195,-0.1951,-0.1952,-0.1995,-0.2,-0.2004,0,0,0,0,0,-0.229,-0.2289,-0.2274,-0.2265,-0.2209,-0.2179,-0.2172,-0.2136,-0.2124,-0.2121,-0.2091,-0.2066,-0.2012,-0.2008,-0.2,-0.2003,-0.1949,-0.1951,-0.1952,-0.1993,-0.1999,-0.2004,0,0,0,0,0,0,-0.2337,-0.2282,-0.2264,-0.2247,-0.2219,-0.217,-0.2166,-0.2143,-0.2117,-0.2114,-0.2071,-0.2061,-0.2045,-0.2022,-0.2019,-0.1997,-0.1977,-0.1977,-0.2012,-0.2017,-0.2021,-0.2026,-0.1982,0,0,0,0,0,-0.2345,-0.2326,-0.2279,-0.2268,-0.2255,-0.2213,-0.2199,-0.2174,-0.2143,-0.213,-0.2098,-0.2068,-0.2044,-0.2029,-0.2005,-0.1992,-0.1982,-0.1991,-0.1995,-0.1998,-0.1998,-0.1992,-0.1995,-0.1957,-0.1957,-0.1957,0,0,-0.2362,-0.233,-0.232,-0.2277,-0.2252,-0.2233,-0.2203,-0.2184,-0.217,-0.2127,-0.2106,-0.2082,-0.2045,-0.2029,-0.2021,-0.201,-0.2007,-0.2,-0.2003,-0.2001,-0.1993,-0.1997,-0.2,-0.1958,-0.1957,-0.1957,0,0,-0.2383,-0.2356,-0.2345,-0.2321,-0.2284,-0.2257,-0.2254,-0.221,-0.2193,-0.2171,-0.2139,-0.2122,-0.2081,-0.2057,-0.204,-0.2055,-0.2031,-0.2048,-0.207,-0.2063,-0.2067,-0.2069,-0.2075,-0.2077,-0.2049,-0.2049,-0.2049,0,-0.2408,-0.2379,-0.2342,-0.2326,-0.2308,-0.227,-0.2259,-0.2237,-0.2194,-0.2183,-0.2172,-0.2122,-0.2094,-0.2073,-0.2077,-0.2064,-0.206,-0.2053,-0.2069,-0.2071,-0.2073,-0.2078,-0.208,-0.2051,-0.2051,-0.2051,-0.205,0,-0.2412,-0.2392,-0.2388,-0.2348,-0.233,-0.2316,-0.2278,-0.2265,-0.2243,-0.2217,-0.2196,-0.2163,-0.2132,-0.2125,-0.2102,-0.2101,-0.2095,-0.2077,-0.2057,-0.208,-0.2084,-0.2085,-0.2054,-0.2054,-0.2053,-0.2052,0,0,-0.2458,-0.24,-0.2399,-0.2381,-0.2339,-0.2323,-0.2308,-0.2278,-0.2268,-0.224,-0.2227,-0.2195,-0.2179,-0.2159,-0.2134,-0.2129,-0.2144,-0.2111,-0.211,-0.2119,-0.2141,-0.2155,-0.2157,-0.2128,-0.2129,-0.2129,-0.2144,0,-0.2472,-0.2444,-0.2412,-0.2394,-0.2376,-0.2341,-0.2328,-0.2301,-0.2278,-0.2259,-0.2232,-0.2211,-0.2191,-0.2179,-0.2172,-0.2143,-0.2148,-0.2142,-0.2116,-0.2115,-0.2125,-0.2159,-0.2173,-0.2189,-0.2145,-0.2146,-0.2146,0,-0.2485,-0.246,-0.2441,-0.2402,-0.2393,-0.2382,-0.2353,-0.2336,-0.2305,-0.2288,-0.2268,-0.2242,-0.2225,-0.2208,-0.2185,-0.2182,-0.217,-0.2154,-0.2154,-0.215,-0.2131,-0.2156,-0.2193,-0.2196,-0.2148,-0.2148,-0.2148,0,-0.2521,-0.2483,-0.2467,-0.2452,-0.2406,-0.24,-0.238,-0.2349,-0.2334,-0.2309,-0.2298,-0.2272,-0.2257,-0.2237,-0.2205,-0.2196,-0.2186,-0.2166,-0.2172,-0.2173,-0.217,-0.2171,-0.2206,-0.2163,-0.2163,-0.2163,-0.2163,0,-0.254,-0.253,-0.2482,-0.2473,-0.2461,-0.2425,-0.2414,-0.2391,-0.2364,-0.235,-0.2318,-0.2305,-0.2264,-0.2246,-0.2221,-0.2206,-0.22,-0.2186,-0.2179,-0.2188,-0.219,-0.2179,-0.2177,-0.2164,-0.2163,-0.2163,-0.2163,0,-0.2578,-0.2545,-0.2526,-0.2484,-0.2474,-0.2467,-0.2432,-0.2421,-0.2397,-0.2379,-0.2373,-0.2334,-0.2312,-0.2278,-0.2246,-0.2229,-0.2219,-0.2208,-0.2229,-0.2225,-0.2233,-0.2233,-0.2262,-0.2264,-0.2221,-0.2221,-0.2221,0,-0.2592,-0.2583,-0.2542,-0.253,-0.2512,-0.2493,-0.2478,-0.2443,-0.2429,-0.2395,-0.2389,-0.2365,-0.2343,-0.231,-0.2279,-0.2254,-0.2243,-0.2255,-0.2238,-0.2249,-0.2243,-0.2244,-0.2243,-0.2258,-0.2259,-0.2259,-0.226,0,-0.262,-0.2605,-0.2585,-0.256,-0.2543,-0.2521,-0.2497,-0.249,-0.245,-0.2436,-0.2413,-0.2397,-0.2365,-0.2342,-0.2314,-0.2293,-0.227,-0.2266,-0.2265,-0.2275,-0.2288,-0.2281,-0.2239,-0.2265,-0.2264,-0.2264,-0.2263,-0.2263,-0.2647,-0.2638,-0.2608,-0.2587,-0.2566,-0.2545,-0.2534,-0.2509,-0.249,-0.2461,-0.2442,-0.2421,-0.2392,-0.2352,-0.2334,-0.2317,-0.2307,-0.2307,-0.2307,-0.2308,-0.2311,-0.2291,-0.2312,-0.2312,-0.2312,-0.2312,-0.2311,0,-0.2674,-0.2654,-0.2634,-0.2603,-0.2587,-0.2568,-0.2542,-0.2529,-0.2512,-0.2487,-0.2467,-0.2442,-0.242,-0.2389,-0.2364,-0.2357,-0.2346,-0.2352,-0.2352,-0.2348,-0.2321,-0.2324,-0.2362,-0.2362,-0.2362,-0.2362,-0.2362,-0.2362,-0.2686,-0.2671,-0.2653,-0.2628,-0.2608,-0.2587,-0.2574,-0.2556,-0.2536,-0.251,-0.2492,-0.2471,-0.2444,-0.2418,-0.2397,-0.2389,-0.2381,-0.2391,-0.2379,-0.2354,-0.235,-0.2345,-0.2347,-0.2389,-0.2389,-0.2406,-0.2406,-0.2407]},{"header":{"parameterUnit":"m.s-1","parameterCategory":1,"la1":30.2991,"la2":30.254,"lo1":-89.0895,"lo2":-89.0444,"dy":0.0017,"dx":0.0017,"nx":28,"ny":28,"refTime":"2025-03-20T21:00:00:Z","depth":0,"parameterNumber":3,"parameterNumberName":"V-component_of_WINDS"},"data":[0,0,0,0,0,0,0,0,0,0,0,0,0,0,0,0,0,0,0,0,0,0,0,0,0,0,0,0,0,0,0,0,0,0,0,0,0,0,0,0,0,0,0,0,0,0,0,0,0,0,0,0,0,0,0,0,0,0,3.9024,3.9023,0,3.8988,3.8987,3.8987,3.8985,3.8985,3.8986,3.8986,3.8943,3.8942,3.894,0,0,0,0,0,0,0,0,0,0,0,0,0,3.9086,3.9085,3.9024,3.9023,3.9023,3.8988,3.8987,3.8987,3.8985,3.8985,3.8986,3.8986,3.8944,3.8942,3.894,0,0,0,0,0,0,0,0,0,0,0,0,0,3.9055,3.9085,3.9024,3.9018,3.9017,3.8988,3.8987,3.8986,3.8985,3.8985,3.8986,3.8987,3.8944,3.8942,3.894,3.8913,0,0,3.8933,3.8932,0,0,0,0,0,0,0,0,3.9057,3.9053,3.9019,3.9018,3.9017,3.8992,3.8993,3.8961,3.8984,3.8997,3.8986,3.8987,3.8958,3.8955,3.8947,3.8911,3.8909,3.8933,3.8931,3.893,3.893,0,0,0,0,0,0,0,3.9059,3.9054,3.9009,3.9019,3.9017,3.9015,3.9012,3.8987,3.8974,3.8996,3.8995,3.8992,3.8958,3.8949,3.8946,3.8908,3.8933,3.8931,3.8929,3.8928,3.8848,3.8847,0,0,0,0,0,0,3.9063,3.9056,3.901,3.9008,3.9039,3.9014,3.901,3.8999,3.8974,3.8971,3.8991,3.8992,3.8953,3.8948,3.8944,3.8911,3.893,3.8928,3.8927,3.8849,3.8848,3.8847,0,0,0,0,0,0,3.9065,3.9059,3.9012,3.9032,3.9026,3.9012,3.9,3.8998,3.8989,3.8971,3.8968,3.8985,3.8953,3.8947,3.8921,3.8909,3.8927,3.8925,3.885,3.8848,3.8847,3.8844,0,0,0,0,0,0,3.9066,3.906,3.905,3.9032,3.9025,3.8991,3.8999,3.8997,3.8986,3.8986,3.8964,3.8961,3.8953,3.8924,3.8919,3.8906,3.8923,3.885,3.8849,3.8848,3.8845,3.8842,3.8841,0,0,0,0,0,3.9069,3.9049,3.905,3.9044,3.9013,3.899,3.8986,3.8979,3.8985,3.8974,3.8963,3.8962,3.8912,3.8922,3.8915,3.8902,3.8851,3.8849,3.8848,3.8846,3.8843,3.8841,0,0,0,0,0,0,3.9064,3.9047,3.9047,3.9022,3.9008,3.899,3.8977,3.8976,3.8958,3.8959,3.8949,3.8944,3.8918,3.8907,3.8919,3.8874,3.8882,3.8879,3.8882,3.888,3.8878,3.888,3.8921,0,0,0,0,0,3.9061,3.9045,3.903,3.9009,3.9002,3.8991,3.898,3.8976,3.896,3.8954,3.894,3.8924,3.8904,3.8891,3.8872,3.8843,3.8838,3.8831,3.8829,3.8827,3.8825,3.8808,3.8805,3.8841,3.8841,3.8841,0,0,3.9052,3.9041,3.9031,3.9008,3.8996,3.8979,3.8985,3.8966,3.8953,3.895,3.8925,3.8915,3.8895,3.8868,3.8855,3.8858,3.8814,3.8825,3.8824,3.8822,3.8806,3.8803,3.88,3.884,3.884,3.8841,0,0,3.9028,3.9018,3.9,3.8989,3.8973,3.8965,3.8961,3.8944,3.8937,3.8912,3.891,3.8893,3.886,3.8846,3.8835,3.8807,3.8805,3.8801,3.879,3.8774,3.8771,3.8769,3.8759,3.8755,3.8798,3.8798,3.8798,0,3.9019,3.8995,3.899,3.8972,3.8961,3.896,3.8941,3.893,3.8907,3.8899,3.8903,3.8862,3.8849,3.8818,3.8812,3.8803,3.8796,3.8803,3.8773,3.877,3.8767,3.8758,3.8754,3.8798,3.8798,3.8798,3.8798,0,3.8985,3.8968,3.8955,3.8936,3.8923,3.8904,3.8895,3.8883,3.8881,3.8872,3.8847,3.8831,3.8809,3.8802,3.8798,3.877,3.8773,3.8775,3.8782,3.8764,3.8754,3.875,3.8797,3.8797,3.8798,3.8798,0,0,3.8956,3.8936,3.8931,3.8922,3.8905,3.8891,3.8871,3.8852,3.8842,3.8826,3.8809,3.8782,3.8784,3.8771,3.8766,3.8752,3.8731,3.8756,3.8755,3.8752,3.87,3.8698,3.8694,3.873,3.8729,3.8729,3.8701,0,3.893,3.8898,3.8894,3.8865,3.8849,3.8848,3.8831,3.8818,3.881,3.8793,3.8784,3.8765,3.8769,3.8762,3.8748,3.8737,3.872,3.8738,3.8713,3.8712,3.8718,3.8689,3.8687,3.8662,3.8698,3.8697,3.8696,0,3.8896,3.8882,3.8852,3.8837,3.883,3.8816,3.8798,3.8783,3.8767,3.8762,3.8749,3.8745,3.8724,3.8733,3.8703,3.8715,3.8704,3.8697,3.8696,3.8693,3.8703,3.8685,3.8654,3.865,3.8691,3.8691,3.8691,0,3.8878,3.8851,3.883,3.8823,3.8805,3.8795,3.8786,3.8772,3.8761,3.8744,3.8737,3.8718,3.8707,3.8691,3.8682,3.869,3.8653,3.8661,3.8647,3.8647,3.8639,3.8639,3.8605,3.8632,3.8632,3.8632,3.8632,0,3.8849,3.8831,3.8822,3.8809,3.8788,3.8783,3.8762,3.8753,3.8741,3.8725,3.8722,3.8707,3.8696,3.8679,3.8671,3.8647,3.8642,3.8637,3.8635,3.8637,3.8638,3.8629,3.8631,3.8631,3.8632,3.8632,3.8632,0,3.8825,3.8819,3.8796,3.8782,3.8778,3.8763,3.875,3.8737,3.8729,3.8709,3.8704,3.8692,3.8672,3.8662,3.8635,3.863,3.8604,3.8603,3.861,3.8609,3.8596,3.8597,3.8555,3.8549,3.858,3.858,3.8579,0,3.8808,3.8794,3.8779,3.8769,3.8762,3.8746,3.8735,3.8729,3.8717,3.8699,3.8688,3.8668,3.8652,3.8619,3.8607,3.8587,3.8586,3.8572,3.8582,3.8585,3.8585,3.8586,3.8585,3.857,3.857,3.857,3.8569,0,3.8777,3.8774,3.876,3.8745,3.8733,3.872,3.8707,3.8699,3.869,3.8677,3.8658,3.8646,3.8621,3.8601,3.858,3.857,3.8568,3.8567,3.8562,3.8564,3.8569,3.8566,3.8604,3.8567,3.8568,3.8568,3.8568,3.8568,3.8755,3.8743,3.8731,3.8715,3.8706,3.8694,3.8681,3.8673,3.8657,3.8638,3.8635,3.8614,3.8598,3.8571,3.856,3.8543,3.8545,3.8539,3.8538,3.8536,3.8536,3.8572,3.8539,3.8539,3.8539,3.8539,3.8539,0,3.8724,3.8717,3.8702,3.8686,3.8673,3.8675,3.8661,3.8649,3.8632,3.8619,3.8604,3.8581,3.8562,3.8549,3.8529,3.8518,3.8516,3.8513,3.8513,3.8511,3.8534,3.854,3.8514,3.8514,3.8514,3.8514,3.8514,3.8514,3.8706,3.8686,3.8683,3.8658,3.865,3.8631,3.8623,3.8612,3.8602,3.8578,3.8563,3.8555,3.8541,3.8521,3.8503,3.8499,3.8492,3.8488,3.8485,3.8507,3.8509,3.8512,3.8517,3.8487,3.8487,3.8463,3.8462,3.8462]}]]